Weather observations for the past three days for
Nelson Lagoon
Metric (Imperial)
Date Time (akdt) Wind (kph) Vis. (km) Weather Sky Cond. Temperature (ºC) Relative Humidity Wind Chill (°C) Heat Index (°C) Pressure Precipitation (cm)
Air Dwpt 6 hour altimeter (cm) sea level (mb) 1 hr 3 hr 6 hr
Max. Min.
21 07:56 W 19 16.09 Overcast SCT006 OVC034 7.2 6.7 97% 4 76.25 1016.4
21 06:56 W 17 16.09 Overcast OVC032 6.7 6.7 100% 4 76.23 1016.0
21 05:56 W 15 16.09 Overcast OVC030 6.7 6.7 100% 4 76.2 1015.9
21 04:56 W 11 16.09 Overcast BKN022 OVC029 6.7 6.7 100% 5 76.2 1015.8
21 03:56 W 9 16.09 Overcast OVC031 7.2 6.7 7.8 6.7 97% 6 76.2 1015.8
21 02:56 NW 11 16.09 A Few Clouds FEW120 6.7 6.1 96% 5 76.2 1015.7
21 01:56 NW 11 16.09 A Few Clouds FEW006 6.7 6.1 96% 5 76.17 1015.4
21 00:56 NW 17 16.09 Fair CLR 7.2 6.7 97% 5 76.12 1015.0
20 23:56 NW 17 16.09 A Few Clouds FEW044 7.2 6.7 97% 5 76.1 1014.5
20 22:56 NW 15 16.09 Overcast OVC040 7.8 6.7 93% 6 76.07 1014.0
20 21:56 NW 11 16.09 Overcast OVC040 7.8 6.7 10 7.8 93% 6 76.02 1013.6
20 20:56 NW 13 16.09 Mostly Cloudy BKN040 BKN050 8.9 7.2 89% 7 76 1013.2
20 19:56 N 9 16.09 A Few Clouds FEW075 9.4 7.2 86% 8 75.97 1012.8
20 18:56 NW 11 16.09 A Few Clouds FEW007 10 7.8 86% 9 75.95 1012.5
20 17:56 NW 11 16.09 Overcast OVC110 9.4 7.8 90% 8 75.95 1012.5
20 16:56 NW 11 16.09 Overcast OVC100 9.4 7.8 90% 8 75.95 1012.4
20 15:56 NW 13 16.09 Overcast SCT060 OVC110 9.4 7.8 10 7.8 90% 8 75.95 1012.3
20 14:56 NW 9 16.09 Overcast OVC055 9.4 7.8 90% 8 75.92 1012.2
20 13:56 NW 7 16.09 Overcast OVC060 9.4 7.8 90% 9 75.92 1012.1
20 12:56 NW 6 16.09 Overcast OVC020 8.9 7.2 89% 75.92 1012.1
20 11:56 NW 6 16.09 Overcast SCT020 OVC060 8.9 7.8 93% 75.92 1012.0
20 10:56 Calm 16.09 Overcast OVC020 8.3 7.2 93% 75.92 1012.2
20 09:56 NE 7 16.09 Overcast OVC022 7.8 7.2 8.3 7.2 96% 7 75.92 1012.0
20 08:56 NE 6 16.09 Overcast OVC020 7.8 7.2 96% 75.92 1012.1
20 07:56 NE 7 16.09 Light Rain OVC020 7.2 6.1 93% 6 75.92 1012.0
20 06:56 NE 7 16.09 Overcast BKN050 OVC070 7.8 6.1 89% 7 75.92 1012.0
20 05:56 NE 11 16.09 Overcast FEW049 BKN060 OVC090 7.8 6.1 89% 6 75.92 1012.1
20 04:56 NE 11 16.09 Overcast FEW060 OVC090 7.2 6.1 93% 5 75.95 1012.3
20 03:56 E 7 16.09 Overcast FEW048 OVC060 7.8 6.7 9.4 7.8 93% 7 75.95 1012.5
20 02:56 E 9 16.09 Light Rain BKN048 OVC070 8.3 6.7 90% 7 75.97 1012.6
20 01:56 SE 9 16.09 Overcast SCT027 BKN065 OVC085 8.3 6.7 90% 7 75.95 1012.6
20 00:56 SE 11 16.09 Overcast FEW030 OVC060 8.3 6.7 90% 7 75.97 1012.7
19 23:56 SE 17 16.09 Overcast SCT032 BKN044 OVC060 8.3 6.1 86% 6 75.97 1012.7
19 22:56 SE 17 16.09 Overcast BKN032 BKN046 OVC070 8.9 6.1 83% 7 75.95 1012.6
19 21:56 SE 22 16.09 Overcast OVC032 9.4 6.1 12.2 9.4 80% 7 75.95 1012.5
19 20:56 SE 24 16.09 Overcast OVC028 10 6.7 80% 7 75.95 1012.4
19 19:56 SE 26 16.09 Overcast OVC046 11.1 6.7 75% 75.95 1012.4
19 18:56 SE 26 16.09 Overcast BKN034 BKN042 OVC070 11.7 6.7 72% 75.95 1012.4
19 17:56 SE 28 16.09 Overcast FEW032 BKN060 OVC100 11.7 6.7 72% 75.95 1012.4
19 16:56 N 6 16.09 Overcast FEW019 BKN031 OVC055 11.1 7.2 77% 75.95 1012.4
19 15:56 SE 24 16.09 Overcast BKN025 OVC038 11.7 7.2 12.8 8.3 74% 75.95 1012.4
19 14:56 SE 22 16.09 Overcast SCT031 OVC041 12.2 7.2 72% 75.92 1012.1
19 13:56 SE 26 16.09 Mostly Cloudy SCT027 BKN035 11.7 6.7 72% 75.92 1012.2
19 12:56 SE 20 16.09 Overcast FEW020 BKN028 OVC036 11.1 7.2 77% 75.9 1011.8
19 11:56 SE 24 16.09 Overcast FEW034 OVC060 10 7.2 83% 7 75.9 1011.9
19 10:56 SE 19 16.09 Overcast FEW034 OVC060 8.9 6.7 86% 6 75.9 1011.7
19 09:56 SE 20 16.09 Overcast OVC041 8.3 6.7 8.3 7.8 90% 5 75.87 1011.3
19 08:56 SE 13 11.27 Light Rain FEW025 SCT050 OVC070 7.8 6.7 93% 6 75.84 1011.2
19 07:56 S 15 8.05 Light Rain Fog/Mist OVC050 7.8 6.7 93% 6 75.84 1011.1
19 06:56 S 11 16.09 Light Rain OVC055 7.8 6.7 93% 6 75.82 1010.8
19 05:56 SE 17 16.09 Overcast SCT019 OVC045 8.3 6.7 90% 6 75.79 1010.6
19 04:56 S 15 16.09 Overcast FEW020 BKN025 OVC049 8.3 6.7 90% 6 75.79 1010.4
19 03:56 S 15 16.09 Overcast FEW014 SCT020 OVC055 8.3 6.7 8.9 7.8 90% 6 75.79 1010.3
19 02:56 SE 9 16.09 Overcast OVC018 8.3 6.7 90% 7 75.77 1010.2
19 01:56 S 11 16.09 Mostly Cloudy FEW020 BKN065 7.8 6.1 89% 6 75.79 1010.2
19 00:56 S 15 16.09 Overcast OVC027 8.3 6.1 86% 6 75.77 1010.2
18 23:56 S 13 16.09 Overcast OVC027 8.3 6.7 90% 6 75.74 1009.9
18 22:56 S 15 16.09 Overcast SCT020 OVC029 8.3 6.7 90% 6 75.72 1009.5
18 21:56 SE 20 16.09 Overcast OVC034 8.3 6.7 9.4 8.3 90% 5 75.69 1009.1
18 20:56 SE 24 16.09 Overcast OVC028 8.9 7.2 89% 6 75.69 1009.0
18 19:56 E 22 16.09 Overcast SCT023 OVC031 8.9 7.8 93% 6 75.69 1009.0
18 18:56 E 13 11.27 Overcast BKN009 OVC019 8.9 7.8 93% 7 75.69 1009.0
18 17:56 E 13 12.87 Overcast FEW006 SCT010 OVC021 8.3 7.8 97% 6 75.69 1009.0
18 16:56 NE 13 4.83 Fog/Mist OVC011 8.9 7.8 93% 7 75.69 1009.1
18 14:56 NE 13 16.09 Overcast OVC022 8.9 7.8 93% 7 75.67 1008.8
18 13:56 NE 13 16.09 Overcast BKN030 OVC037 8.3 7.8 97% 6 75.67 1008.8
18 12:56 NE 13 16.09 Light Rain FEW031 OVC045 8.9 7.8 93% 7 75.67 1008.7
18 11:56 E 7 16.09 Light Rain BKN045 OVC060 8.9 7.2 89% 8 75.67 1008.8
18 10:56 Calm 16.09 Light Rain OVC055 8.3 7.8 97% 75.67 1008.7
18 09:56 SE 6 16.09 Light Rain OVC060 8.3 7.2 8.9 7.2 93% 75.64 1008.5
Date Time (akdt) Wind (kph) Vis. (km) Weather Sky Cond. Air Dwpt Max. Min. Relative Humidity Wind Chill (°C) Heat Index (°C) altimeter (cm) sea level (mb) 1 hr 3 hr 6 hr
6 hour
Temperature (ºC) Pressure Precipitation (cm)